This is the latest recevied weather packets stored in our database for station/object OK2ILA-10. If no packets are shown the sender has not sent any weather packets the latest 10 day(s).
| Time | Temp. | Humidity | Pressure | Rain* | Wind** | Luminosity | Snow |
|---|---|---|---|---|---|---|---|
| 1787894496 | 14.44° C | 74% | 1019.2 hPa | - | - | - | - |
| 1787893895 | 13.89° C | 74% | 1019.4 hPa | - | - | - | - |
| 1787889746 | 12.78° C | 77% | 1019.3 hPa | - | - | - | - |
| 1787884945 | 12.78° C | 76% | 1019.3 hPa | - | - | - | - |
| 1787884345 | 12.78° C | 76% | 1019.3 hPa | - | - | - | - |
| 1787883744 | 13.33° C | 76% | 1019.3 hPa | - | - | - | - |
| 1787883144 | 13.33° C | 76% | 1019.3 hPa | - | - | - | - |
| 1787882544 | 13.33° C | 76% | 1019.4 hPa | - | - | - | - |
| 1787881944 | 13.33° C | 75% | 1019.5 hPa | - | - | - | - |
| 1787881344 | 13.33° C | 75% | 1019.5 hPa | - | - | - | - |
| 1787880744 | 13.33° C | 74% | 1019.5 hPa | - | - | - | - |
| 1787879543 | 13.89° C | 74% | 1019.5 hPa | - | - | - | - |
| 1787878343 | 13.89° C | 73% | 1019.6 hPa | - | - | - | - |
| 1787877736 | 13.89° C | 73% | 1019.7 hPa | - | - | - | - |
| 1787877136 | 13.89° C | 73% | 1019.8 hPa | - | - | - | - |
| 1787876543 | 13.89° C | 73% | 1019.8 hPa | - | - | - | - |
| 1787875936 | 13.89° C | 72% | 1020 hPa | - | - | - | - |
| 1787875336 | 14.44° C | 72% | 1020.2 hPa | - | - | - | - |
| 1787874735 | 14.44° C | 72% | 1020.4 hPa | - | - | - | - |
| 1787874135 | 14.44° C | 72% | 1020.3 hPa | - | - | - | - |
| 1787873535 | 14.44° C | 71% | 1020.5 hPa | - | - | - | - |
| 1787872935 | 14.44° C | 71% | 1020.7 hPa | - | - | - | - |
| 1787872335 | 15° C | 70% | 1020.6 hPa | - | - | - | - |
| 1787871735 | 15° C | 71% | 1020.6 hPa | - | - | - | - |
| 1787871134 | 15° C | 71% | 1020.5 hPa | - | - | - | - |
* Rain since midnight (hover to see other rain measurements)
** Current wind speed in m/s (hover to see current wind gust speed)